Temp
18 18 18 18 17 16 16 15 14 14 14 13 13 13 13 13 13 14 14 14 15 15
19 19 19 18 18 17 16 15 14 14 14 13 13 13 12 12 12 13 13 13 14 14
19 19 19 19 18 18 17 16 14 14 13 13 13 13 12 11 11 11 12 13 13 13
16 18 19 19 18 18 17 16 15 14 13 13 13 12 12 11 11 10 10 10 11 11
14 16 18 19 18 18 17 16 15 14 13 13 12 12 11 11 10 10 9 9 9 9
13 13 16 15 18 17 16 16 15 14 13 13 13 12 11 11 11 10 9 9 9 8
12 11 11 12 13 15 16 16 15 14 13 13 12 12 11 11 11 10 9 9 9 8
13 11 10 11 13 13 14 15 15 14 14 13 12 12 11 11 11 10 9 9 8 8
12 10 9 9 10 11 12 13 13 13 13 12 12 12 11 11 10 10 9 8 8 7
12 10 9 7 8 8 10 11 11 11 11 11 11 11 11 10 9 8 8 8 7 7
9 8 8 7 6 7 7 8 9 9 10 10 10 9 9 9 8 8 7 7 6 5
8 7 7 6 5 5 5 6 6 7 7 8 8 8 8 8 6 5 5 5 5 4
6 6 6 5 4 4 4 4 4 5 5 6 5 6 6 6 4 3 3 4 4 4
5 4 4 4 3 3 3 3 3 3 3 3 3 4 5 6 5 3 2 3 3 3
Height
669 672 675 679 682 685 688 692 701 707 714 720 727 732 738 744 748 754 758 762 766 771
659 663 665 668 673 677 682 686 690 695 703 709 716 722 728 733 737 741 749 754 759 763
655 653 657 661 663 668 674 678 679 686 692 700 705 710 716 723 729 735 738 745 750 754
650 649 648 649 654 658 664 668 671 675 682 688 695 701 706 710 716 720 728 734 740 745
649 646 644 643 646 649 652 659 662 667 671 676 683 689 693 699 703 706 711 715 728 734
645 643 641 639 639 640 644 647 651 656 660 665 670 675 679 684 689 694 699 704 708 718
642 641 636 635 634 633 636 639 641 644 650 655 660 664 667 671 677 681 686 691 696 702
640 638 634 629 629 630 629 629 631 635 639 645 650 653 658 662 666 671 676 681 684 688
637 634 631 626 624 625 625 628 629 630 633 635 642 643 648 651 655 659 665 675 678 676
634 633 627 627 618 619 625 624 624 627 632 631 634 638 642 649 655 657 663 666 668 675
632 627 621 620 618 616 622 619 622 624 627 629 631 634 639 646 650 654 659 663 671 681
628 619 617 618 620 626 612 617 621 623 625 627 628 632 637 644 647 652 658 661 665 675
623 617 615 618 616 621 609 619 621 622 626 627 628 633 636 640 645 652 660 662 671 674
615 614 610 612 617 619 609 617 621 624 627 630 631 633 638 644 647 652 659 663 669 674
Wind_Speed
35 35 37 34 29 33 36 38 41 43 46 44 43 44 44 44 45 46 44 44 43 39
32 38 36 38 37 34 35 34 39 44 47 46 45 43 42 44 45 45 46 43 44 41
24 31 37 36 37 36 33 35 38 44 46 44 46 48 46 42 40 41 42 43 42 44
13 22 30 35 36 38 34 34 37 43 44 46 44 44 45 46 44 46 43 42 42 42
13 13 20 28 29 35 37 36 38 39 43 47 47 47 47 47 45 46 47 47 42 39
12 12 14 14 26 32 34 36 36 41 44 46 48 49 52 53 51 48 49 49 47 45
12 13 14 17 20 21 33 37 38 42 41 42 45 48 51 52 49 47 47 48 50 50
15 13 12 14 16 17 17 23 36 39 42 44 46 47 47 46 45 43 42 45 49 49
19 15 9 11 11 16 19 23 24 25 30 33 36 40 48 46 41 41 39 34 35 34
18 17 11 9 7 8 15 18 21 26 30 28 29 33 36 37 27 27 31 34 33 35
18 14 12 8 7 7 10 12 18 22 24 25 26 26 26 31 27 28 31 33 31 29
18 11 10 9 7 11 7 9 13 16 19 21 18 17 22 31 28 26 25 28 31 32
16 13 11 9 10 9 10 11 12 13 13 14 16 17 24 31 27 26 24 24 25 29
16 14 11 12 10 14 16 16 16 16 15 18 22 25 23 23 25 26 25 26 24 23
Wind_Direction
217 218 220 218 211 211 209 205 206 205 207 206 207 205 204 205 206 207 209 208 208 207
224 222 221 221 219 216 212 210 205 204 205 206 204 205 204 206 208 206 210 212 210 211
242 233 226 223 222 220 217 212 204 204 205 207 206 204 202 207 211 211 210 213 213 209
274 244 236 226 222 220 217 210 206 203 203 205 206 205 204 206 206 205 210 213 213 211
295 279 249 235 230 220 216 214 209 203 202 203 205 204 203 206 209 207 207 206 209 210
300 301 284 289 243 225 216 212 209 206 204 203 204 204 207 210 210 212 211 207 203 201
291 296 292 288 288 256 222 218 211 207 205 206 207 207 209 211 214 214 213 209 207 203
290 287 292 295 277 277 264 238 213 208 209 209 210 211 212 214 214 212 210 210 208 206
294 294 283 290 281 266 259 251 239 221 215 212 215 217 217 214 211 207 205 206 203 208
281 281 283 280 269 261 257 246 237 230 224 218 218 220 221 220 210 206 208 206 198 197
274 271 280 278 290 253 244 242 232 223 222 219 218 217 213 206 198 197 199 198 194 195
264 258 253 240 223 231 201 209 207 204 205 208 207 208 204 194 183 180 182 184 182 185
246 233 224 228 193 201 170 179 173 166 180 189 171 189 193 184 165 152 156 164 176 187
241 226 204 187 189 170 149 149 142 138 145 150 154 161 179 179 166 155 148 153 160 173